Flag for Indonesia Weather past 2 weeks in Makassar, South Sulawesi, Indonesia

Now
90 °F

Passing clouds.


Feels Like: 95 °F
Forecast: 76 / 88 °F
Wind: 8 mph from West

Location: Ujung Pandang / Hasanuddin

Current Time: Jul 26, 2014 at 3:15:48 PM

Latest Report: Jul 26, 2014 at 2:30 PM


Visibility: N/A

Pressure: 29.86 "Hg

Humidity: 52%

Dew point: 70 °F

Location of MakassarLocation

Historic Weather in Makassar — Graph

°F

Makassar temperature yesterday

Maximum temperature yesterday: 91 °F (at 1:00 PM)
Minimum temperature yesterday: 73 °F (at 1:30 AM)
Average temperature yesterday: 81 °F

Past Weeks' High & Low Weather Summary

 TemperatureHumidityPressure
High93 °F (Jul 22, 1:30 PM)100% (Jul 17, 12:00 AM)29.95 "Hg (Jul 17, 12:00 AM)
Low68 °F (Jul 24, 2:30 AM)44% (Jul 22, 12:00 PM)29.74 "Hg (Jul 18, 2:30 PM)
Average80 °F80%29.85 "Hg
* Reported Jul 11 2:00 PM — Jul 26 2:00 PM, Makassar, Weather by CustomWeather, © 2014

Note: Actual official high and low records may vary slightly from our data, if they occured in-between our weather recording intervals... More about our weather records

Advertising

Makassar weather history for previous 24 hours

 ConditionsComfort  
Time TempWeatherWind HumidityBarometerVisibility
2:00 PM
Jul 26
88 °FPassing clouds.10 mph55%29.86 "HgN/A
1:30 PM90 °FPassing clouds.10 mph55%29.86 "HgN/A
1:00 PM90 °FPassing clouds.9 mph55%29.86 "HgN/A
12:30 PM91 °FPassing clouds.7 mph52%29.89 "HgN/A
12:00 PM91 °FPassing clouds.5 mph56%29.89 "HgN/A
11:30 AM90 °FPassing clouds.3 mph55%29.92 "HgN/A
11:00 AM90 °FSunny.3 mph55%29.92 "Hg10 mi
10:30 AM88 °FPassing clouds.3 mph55%29.92 "HgN/A
10:00 AM86 °FPassing clouds.3 mph62%29.95 "HgN/A
9:30 AM86 °FPassing clouds.5 mph59%29.92 "HgN/A
9:00 AM84 °FPassing clouds.7 mph62%29.95 "HgN/A
8:30 AM82 °FPassing clouds.5 mph70%29.95 "HgN/A
8:00 AM79 °FPassing clouds.5 mph74%29.95 "HgN/A
7:30 AM75 °FPassing clouds.3 mph83%29.92 "HgN/A
7:00 AM73 °FClear.3 mph89%29.92 "Hg6 mi
6:30 AM72 °FClear.5 mph88%29.89 "Hg6 mi
6:00 AM72 °FPassing clouds.3 mph88%29.89 "Hg6 mi
5:30 AM72 °FPassing clouds.3 mph94%29.89 "Hg5 mi
5:00 AM72 °FPassing clouds.2 mph94%29.89 "Hg5 mi
4:00 AM72 °FPassing clouds.3 mph100%29.89 "Hg5 mi
3:30 AM72 °FPassing clouds.3 mph94%29.89 "Hg5 mi
3:00 AM73 °FPassing clouds.2 mph94%29.89 "Hg5 mi
2:30 AM73 °FPassing clouds.3 mph94%29.89 "Hg5 mi
2:00 AM75 °FPassing clouds.2 mph89%29.89 "Hg5 mi
1:30 AM75 °FPassing clouds.3 mph89%29.92 "Hg5 mi
1:00 AM75 °FPassing clouds.3 mph89%29.92 "Hg5 mi
12:30 AM75 °FPassing clouds.3 mph89%29.92 "Hg5 mi
12:00 AM75 °FPassing clouds.5 mph89%29.92 "Hg5 mi
11:30 PM
Jul 25
75 °FPassing clouds.2 mph89%29.92 "Hg5 mi
11:00 PM75 °FPassing clouds.3 mph89%29.92 "Hg5 mi
10:30 PM75 °FPassing clouds.5 mph94%29.92 "Hg5 mi
10:00 PM75 °FPassing clouds.5 mph89%29.92 "Hg5 mi
9:30 PM77 °FPassing clouds.3 mph89%29.92 "Hg5 mi
9:00 PM77 °FPassing clouds.5 mph89%29.92 "Hg5 mi
8:30 PM79 °FPassing clouds.2 mph89%29.92 "Hg5 mi
8:00 PM79 °FPassing clouds.3 mph84%29.89 "Hg5 mi
7:30 PM79 °FPassing clouds.7 mph84%29.89 "Hg5 mi
7:00 PM81 °FPassing clouds.5 mph79%29.86 "Hg5 mi
6:30 PM84 °FPassing clouds.5 mph70%29.86 "Hg5 mi
6:00 PM84 °FPassing clouds.5 mph70%29.86 "HgN/A
5:30 PM86 °FPassing clouds.6 mph62%29.86 "HgN/A
5:00 PM88 °FPassing clouds.7 mph55%29.83 "HgN/A
4:30 PM88 °FPassing clouds.9 mph55%29.83 "HgN/A
4:00 PM88 °FPassing clouds.8 mph59%29.83 "HgN/A
3:30 PM90 °FPassing clouds.8 mph55%29.83 "HgN/A
3:00 PM91 °FPassing clouds.8 mph52%29.83 "HgN/A
Weather by CustomWeather, © 2014

See weather overviewHow to use our weather pages